Location: Cypress Hills Dark-Sky Preserve - CHICO
(49.6176°N, 110.2634°W)
Time: 09:39:59
(UTC-06:00)

Amateur Radio Satellites - All Passes

Search period start: 18 September 2014 09:09
Search period end: 19 September 2014 09:09
Location: Cypress Hills Dark-Sky Preserve - CHICO, 49.6176°N, 110.2634°W

Satellite Date Start Highest point End Downlink Frequencies (MHz)
Time Altitude Azimuth
ISS 18 Sep 09:14:46 09:18:05 63° 204° (SSW) 09:21:23 145.800 FM
SO-67 18 Sep 09:14:56 09:18:08 35° 290° (WNW) 09:21:18 435.3500 MHz FM
UKube-1 18 Sep 09:58:33 10:01:32 18° 91° (E) 10:04:30 145.840 MHz, 145.915 MHz
AO-7 18 Sep 10:12:03 10:12:51 10° 339° (NNW) 10:13:39 29.400 - 29.500 MHz
UOSAT-12 18 Sep 10:21:29 10:25:50 36° 241° (WSW) 10:30:06 437.025 FM, 437.400 FM
MaSat-1 18 Sep 10:23:09 10:28:08 58° 305° (NW) 10:32:57 437.345 MHz
HO-68 18 Sep 10:42:37 10:49:51 78° 106° (ESE) 10:57:02 435.675 MHz FM
ISS 18 Sep 10:52:24 10:54:18 14° 222° (SW) 10:56:11 145.800 FM
FUNcube-1 18 Sep 11:04:31 11:08:33 28° 94° (E) 11:12:32 145.950 - 145.970 MHz USB
RS-15 18 Sep 11:17:32 11:27:46 41° 19° (NNE) 11:38:14 29.354 - 29.394 USB, Beacon 29.352 USB
Oscar 11 18 Sep 11:18:27 11:22:50 81° 104° (ESE) 11:27:11 145.825 FM, Beacon 2401.500 USB
UKube-1 18 Sep 11:33:49 11:38:06 57° 289° (WNW) 11:42:22 145.840 MHz, 145.915 MHz
Sapphire 18 Sep 11:55:39 11:57:03 11° 101° (E) 11:58:27 437.095 MHz 1200 baud AX-25 AFSK
Oscar 19 18 Sep 11:55:59 11:57:35 11° 49° (NE) 11:59:11 437.125 CW, 437.150 USB
JAS-1B 18 Sep 11:57:54 12:01:26 14° 46° (NE) 12:04:44 435.800 - 435.900 CW/SSB
MaSat-1 18 Sep 12:02:55 12:05:52 15° 325° (NW) 12:08:43 437.345 MHz
PCSat 18 Sep 12:20:00 12:23:49 20° 107° (ESE) 12:27:39 145.825 MHz
HO-68 18 Sep 12:31:03 12:36:56 29° 307° (NW) 12:42:49 435.675 MHz FM
Oscar 16 18 Sep 12:31:46 12:35:37 22° 58° (ENE) 12:39:30 437.025 USB, Beacon 2401.1428
FUNcube-1 18 Sep 12:40:43 12:45:02 39° 292° (WNW) 12:49:19 145.950 - 145.970 MHz USB
Oscar 11 18 Sep 12:56:02 12:58:27 15° 303° (WNW) 13:00:50 145.825 FM, Beacon 2401.500 USB
AO-Echo 18 Sep 12:56:48 12:59:36 16° 56° (ENE) 13:02:23 ?
ITAMSAT 1 18 Sep 13:12:23 13:16:14 22° 58° (ENE) 13:20:06 435.822 SSB
Uribyol 2 18 Sep 13:16:37 13:20:43 24° 59° (ENE) 13:24:49 436.500 FM
RS-15 18 Sep 13:30:46 13:41:52 82° 48° (NE) 13:53:23 29.354 - 29.394 USB, Beacon 29.352 USB
Oscar 19 18 Sep 13:30:48 13:35:53 57° 69° (ENE) 13:41:00 437.125 CW, 437.150 USB
TMSAT-1 18 Sep 13:32:19 13:34:48 14° 51° (NE) 13:37:18 436.925 FM
Sapphire 18 Sep 13:34:04 13:39:25 65° 120° (ESE) 13:44:48 437.095 MHz 1200 baud AX-25 AFSK
JAS-1B 18 Sep 13:42:47 13:50:48 53° 66° (ENE) 13:57:32 435.800 - 435.900 CW/SSB
AO-27 18 Sep 13:45:52 13:50:37 38° 65° (ENE) 13:55:23 436.795 MHz FM
AO-7 18 Sep 13:46:18 13:51:04 17° 35° (NE) 13:55:49 29.400 - 29.500 MHz
PCSat 18 Sep 14:01:12 14:06:37 79° 307° (NW) 14:12:05 145.825 MHz
Oscar 16 18 Sep 14:09:19 14:14:30 70° 257° (WSW) 14:19:43 437.025 USB, Beacon 2401.1428
Gurwin Techsat 1B 18 Sep 14:30:57 14:35:59 45° 67° (ENE) 14:41:02 435.225 FM
AO-Echo 18 Sep 14:33:02 14:37:47 83° 256° (WSW) 14:42:31 ?
ITAMSAT 1 18 Sep 14:50:07 14:55:15 69° 257° (WSW) 15:00:27 435.822 SSB
Uribyol 2 18 Sep 14:54:43 14:59:49 60° 258° (WSW) 15:04:59 436.500 FM
TMSAT-1 18 Sep 15:08:33 15:13:48 68° 71° (ENE) 15:19:05 436.925 FM
Oscar 19 18 Sep 15:11:29 15:15:35 23° 268° (W) 15:19:44 437.125 CW, 437.150 USB
Sapphire 18 Sep 15:18:29 15:23:16 31° 322° (NW) 15:28:05 437.095 MHz 1200 baud AX-25 AFSK
AO-27 18 Sep 15:25:27 15:30:10 35° 264° (W) 15:34:55 436.795 MHz FM
JAS-1B 18 Sep 15:33:38 15:41:32 41° 263° (W) 15:48:16 435.800 - 435.900 CW/SSB
AO-7 18 Sep 15:34:07 15:42:01 50° 59° (ENE) 15:49:54 29.400 - 29.500 MHz
Uosat F 18 Sep 15:42:27 15:46:46 30° 62° (ENE) 15:51:05 435.120 FM
RS-15 18 Sep 15:43:44 15:53:15 35° 253° (WSW) 16:03:08 29.354 - 29.394 USB, Beacon 29.352 USB
PCSat 18 Sep 15:46:40 15:50:54 23° 329° (NNW) 15:55:10 145.825 MHz
Oscar 16 18 Sep 15:53:48 15:54:50 11° 276° (W) 15:55:52 437.025 USB, Beacon 2401.1428
Gurwin Techsat 1B 18 Sep 16:11:28 16:16:07 31° 266° (W) 16:20:48 435.225 FM
AO-Echo 18 Sep 16:15:55 16:17:21 11° 274° (W) 16:18:47 ?
ITAMSAT 1 18 Sep 16:35:03 16:35:45 10° 276° (W) 16:36:26 435.822 SSB
TMSAT-1 18 Sep 16:50:24 16:54:14 20° 270° (W) 16:58:06 436.925 FM
MaSat-1 18 Sep 16:59:34 17:02:35 19° 38° (NE) 17:05:20 437.345 MHz
Sapphire 18 Sep 17:05:45 17:08:29 14° 347° (NNW) 17:11:14 437.095 MHz 1200 baud AX-25 AFSK
Uosat F 18 Sep 17:20:39 17:25:24 44° 261° (W) 17:30:12 435.120 FM
AO-7 18 Sep 17:26:57 17:34:53 48° 260° (W) 17:42:52 29.400 - 29.500 MHz
PCSat 18 Sep 17:34:09 17:36:26 13° 355° (N) 17:38:43 145.825 MHz
Saudisat 1A 18 Sep 17:35:10 17:38:23 20° 114° (ESE) 17:41:36 436.775 MHz
JAS-2 18 Sep 17:35:41 17:40:36 44° 67° (ENE) 17:45:33 435.800 - 435.900 CW/SSB, 435.910 FM
Hamsat 18 Sep 17:36:37 17:40:36 36° 68° (ENE) 17:44:35 145.90 MHz
OPAL 18 Sep 18:13:13 18:18:23 61° 104° (ESE) 18:23:27 ?
SO-67 18 Sep 18:20:32 18:22:19 14° 62° (ENE) 18:24:06 435.3500 MHz FM
KITSAT 1 18 Sep 18:26:09 18:27:01 10° 95° (E) 18:27:53 435.175 FM
MaSat-1 18 Sep 18:35:51 18:39:56 70° 242° (WSW) 18:43:24 437.345 MHz
Sapphire 18 Sep 18:51:33 18:54:20 14° 14° (NNE) 18:57:08 437.095 MHz 1200 baud AX-25 AFSK
STRAND 1 18 Sep 18:53:44 18:56:23 14° 87° (E) 18:59:00 ?
Hamsat 18 Sep 19:12:51 19:16:37 28° 266° (W) 19:20:24 145.90 MHz
Saudisat 1A 18 Sep 19:13:09 19:17:33 66° 313° (NW) 19:21:58 436.775 MHz
PCSat 18 Sep 19:18:44 19:22:12 17° 22° (NNE) 19:25:39 145.825 MHz
JAS-2 18 Sep 19:21:32 19:26:00 28° 266° (W) 19:30:26 435.800 - 435.900 CW/SSB, 435.910 FM
HO-68 18 Sep 19:30:12 19:35:36 24° 50° (NE) 19:41:01 435.675 MHz FM
SO-67 18 Sep 19:51:33 19:54:57 54° 260° (W) 19:58:22 435.3500 MHz FM
OPAL 18 Sep 19:52:44 19:56:53 25° 304° (WNW) 20:00:59 ?
KITSAT 1 18 Sep 20:12:47 20:20:29 51° 116° (ESE) 20:28:13 435.175 FM
STRAND 1 18 Sep 20:31:09 20:36:19 89° 106° (ESE) 20:41:28 ?
Sapphire 18 Sep 20:34:40 20:39:32 32° 39° (NE) 20:44:22 437.095 MHz 1200 baud AX-25 AFSK
Oscar 11 18 Sep 20:43:37 20:46:12 16° 58° (ENE) 20:48:48 145.825 FM, Beacon 2401.500 USB
Saudisat 1A 18 Sep 20:54:47 20:57:56 19° 335° (NNW) 21:01:06 436.775 MHz
UKube-1 18 Sep 20:58:01 21:01:42 28° 64° (ENE) 21:05:23 145.840 MHz, 145.915 MHz
PCSat 18 Sep 21:01:45 21:07:00 46° 45° (NE) 21:12:13 145.825 MHz
HO-68 18 Sep 21:15:18 21:22:28 88° 71° (ENE) 21:29:40 435.675 MHz FM
FUNcube-1 18 Sep 22:05:02 22:09:07 38° 67° (ENE) 22:13:19 145.950 - 145.970 MHz USB
KITSAT 1 18 Sep 22:08:03 22:15:57 54° 319° (NW) 22:23:52 435.175 FM
STRAND 1 18 Sep 22:11:37 22:14:51 17° 305° (NW) 22:18:05 ?
Oscar 11 18 Sep 22:17:29 22:21:51 76° 257° (WSW) 22:26:15 145.825 FM, Beacon 2401.500 USB
Sapphire 18 Sep 22:17:58 22:23:21 63° 240° (WSW) 22:28:41 437.095 MHz 1200 baud AX-25 AFSK
UKube-1 18 Sep 22:33:46 22:37:47 37° 262° (W) 22:41:51 145.840 MHz, 145.915 MHz
Saudisat 1A 18 Sep 22:37:37 22:39:14 12° 360° (N) 22:40:50 436.775 MHz
PCSat 18 Sep 22:45:23 22:50:22 37° 246° (WSW) 22:55:18 145.825 MHz
SO-50 18 Sep 22:54:26 22:58:10 26° 116° (ESE) 23:02:00 436.795 FM
HO-68 18 Sep 23:05:54 23:11:05 21° 271° (W) 23:16:19 435.675 MHz FM
AO-40 18 Sep 23:37:23 01:32:08 20° 212° (SSW) 04:41:31 Beacon 2401.320
FUNcube-1 18 Sep 23:41:47 23:45:36 28° 266° (W) 23:49:31 145.950 - 145.970 MHz USB
Sapphire 19 Sep 00:04:46 00:05:41 10° 259° (W) 00:06:36 437.095 MHz 1200 baud AX-25 AFSK
KITSAT 1 19 Sep 00:06:39 00:13:19 27° 346° (NNW) 00:19:59 435.175 FM
Saudisat 1A 19 Sep 00:17:27 00:20:32 18° 24° (NNE) 00:23:37 436.775 MHz
SO-50 19 Sep 00:34:01 00:38:28 54° 316° (NW) 00:43:03 436.795 FM
UOSAT-12 19 Sep 00:36:56 00:40:42 25° 115° (ESE) 00:44:31 437.025 FM, 437.400 FM
Oscar 10/S400 19 Sep 01:12:55 02:06:09 38° 213° (SSW) 07:15:19 145.825 - 145.975 CW/USB, Beacon 145.810 USB
Oscar 19 19 Sep 01:39:28 01:42:15 14° 87° (E) 01:45:01 437.125 CW, 437.150 USB
Saudisat 1A 19 Sep 01:56:34 02:00:58 62° 46° (NE) 02:05:21 436.775 MHz
KITSAT 1 19 Sep 02:04:51 02:11:35 27° 16° (NNE) 02:18:17 435.175 FM
UOSAT-12 19 Sep 02:15:55 02:20:32 59° 315° (NW) 02:25:14 437.025 FM, 437.400 FM
SO-50 19 Sep 02:16:53 02:20:03 18° 339° (NNW) 02:23:17 436.795 FM
Oscar 16 19 Sep 02:16:54 02:21:29 31° 94° (E) 02:26:01 437.025 USB, Beacon 2401.1428
AO-Echo 19 Sep 02:36:03 02:39:49 22° 92° (E) 02:43:39 ?
Gurwin Techsat 1B 19 Sep 02:44:30 02:46:42 12° 85° (E) 02:48:53 435.225 FM
ITAMSAT 1 19 Sep 02:58:47 03:03:23 31° 95° (E) 03:07:59 435.822 SSB
Uribyol 2 19 Sep 03:03:04 03:07:52 35° 96° (E) 03:12:38 436.500 FM
JAS-1B 19 Sep 03:13:44 03:19:22 45° 98° (E) 03:24:46 435.800 - 435.900 CW/SSB
Oscar 19 19 Sep 03:17:07 03:22:21 89° 286° (WNW) 03:27:30 437.125 CW, 437.150 USB
TMSAT-1 19 Sep 03:20:47 03:24:35 20° 89° (E) 03:28:21 436.925 FM
AO-27 19 Sep 03:33:19 03:38:29 60° 102° (ESE) 03:43:38 436.795 MHz FM
ISS 19 Sep 03:36:45 03:39:15 20° 141° (SE) 03:41:45 145.800 FM
Saudisat 1A 19 Sep 03:36:49 03:40:11 22° 245° (WSW) 03:43:32 436.775 MHz
OPAL 19 Sep 03:54:34 03:59:04 30° 59° (ENE) 04:03:35 ?
Oscar 16 19 Sep 03:56:05 04:00:59 44° 294° (WNW) 04:05:51 437.025 USB, Beacon 2401.1428
UOSAT-12 19 Sep 03:58:15 04:01:38 19° 337° (NNW) 04:05:03 437.025 FM, 437.400 FM
SO-50 19 Sep 04:00:11 04:02:27 13° 4° (N) 04:04:45 436.795 FM
KITSAT 1 19 Sep 04:00:54 04:08:52 57° 43° (NE) 04:16:47 435.175 FM
RS-15 19 Sep 04:01:38 04:10:34 30° 105° (ESE) 04:19:25 29.354 - 29.394 USB, Beacon 29.352 USB
AO-Echo 19 Sep 04:14:14 04:18:55 54° 290° (WNW) 04:23:42 ?
Gurwin Techsat 1B 19 Sep 04:22:12 04:27:34 78° 104° (ESE) 04:32:53 435.225 FM
ITAMSAT 1 19 Sep 04:38:06 04:43:02 44° 294° (WNW) 04:47:57 435.822 SSB
Uribyol 2 19 Sep 04:42:34 04:47:23 39° 295° (WNW) 04:52:11 436.500 FM
Oscar 19 19 Sep 04:57:46 05:01:00 17° 305° (NW) 05:04:12 437.125 CW, 437.150 USB
TMSAT-1 19 Sep 04:59:45 05:05:03 70° 288° (WNW) 05:10:19 436.925 FM
JAS-1B 19 Sep 05:04:47 05:09:58 32° 300° (WNW) 05:14:54 435.800 - 435.900 CW/SSB
ISS 19 Sep 05:12:16 05:15:36 80° 160° (SSE) 05:18:57 145.800 FM
AO-27 19 Sep 05:13:30 05:17:39 25° 301° (WNW) 05:21:47 436.795 MHz FM
AO-7 19 Sep 05:22:53 05:30:51 48° 100° (E) 05:38:46 29.400 - 29.500 MHz
Uosat F 19 Sep 05:23:38 05:28:23 41° 98° (E) 05:33:07 435.120 FM
OPAL 19 Sep 05:32:45 05:37:45 48° 258° (WSW) 05:42:50 ?
SO-50 19 Sep 05:40:53 05:44:41 23° 28° (NNE) 05:48:33 436.795 FM
UOSAT-12 19 Sep 05:41:18 05:43:36 13° 2° (N) 05:45:53 437.025 FM, 437.400 FM
KITSAT 1 19 Sep 05:56:35 06:04:12 47° 246° (WSW) 06:11:47 435.175 FM
Gurwin Techsat 1B 19 Sep 06:03:12 06:06:58 20° 304° (WNW) 06:10:43 435.225 FM
RS-15 19 Sep 06:10:34 06:21:36 88° 309° (NW) 06:32:38 29.354 - 29.394 USB, Beacon 29.352 USB
STRAND 1 19 Sep 06:13:15 06:17:44 32° 63° (ENE) 06:22:14 ?
JAS-2 19 Sep 06:23:13 06:28:20 29° 94° (E) 06:33:57 435.800 - 435.900 CW/SSB, 435.910 FM
TMSAT-1 19 Sep 06:41:27 06:44:04 14° 308° (NW) 06:46:41 436.925 FM
ISS 19 Sep 06:49:09 06:52:27 58° 360° (N) 06:55:45 145.800 FM
Hamsat 19 Sep 06:53:38 06:57:40 39° 97° (E) 07:01:37 145.90 MHz
Uosat F 19 Sep 07:02:39 07:07:05 32° 297° (WNW) 07:11:31 435.120 FM
AO-7 19 Sep 07:15:51 07:23:44 50° 301° (WNW) 07:31:35 29.400 - 29.500 MHz
SO-50 19 Sep 07:21:07 07:25:56 84° 50° (NE) 07:30:48 436.795 FM
UOSAT-12 19 Sep 07:21:47 07:25:28 22° 26° (NNE) 07:29:08 437.025 FM, 437.400 FM
STRAND 1 19 Sep 07:52:02 07:56:50 41° 262° (W) 08:01:40 ?
JAS-2 19 Sep 08:08:01 08:13:41 56° 291° (WNW) 08:20:03 435.800 - 435.900 CW/SSB, 435.910 FM
RS-15 19 Sep 08:25:11 08:35:26 43° 339° (NNW) 08:45:50 29.354 - 29.394 USB, Beacon 29.352 USB
ISS 19 Sep 08:25:58 08:29:19 85° 199° (SSW) 08:32:39 145.800 FM
MaSat-1 19 Sep 08:25:59 08:29:47 22° 106° (ESE) 08:33:32 437.345 MHz
Hamsat 19 Sep 08:29:56 08:33:28 25° 296° (WNW) 08:36:57 145.90 MHz
HO-68 19 Sep 08:40:50 08:43:42 13° 82° (E) 08:46:33 435.675 MHz FM
SO-67 19 Sep 08:43:44 08:47:13 85° 282° (WNW) 08:50:40 435.3500 MHz FM
SO-50 19 Sep 09:02:49 09:05:57 17° 248° (WSW) 09:09:06 436.795 FM
